Location: Deer Path Park
(40.5570°N, 74.8450°W)
Time: 14:28:54
(UTC-04:00)

Iridium 49 - Visible Passes

Search period start: 20 August 2014 00:00
Search period end: 30 August 2014 00:00
Orbit: 776 x 779 km, 86.4° (Epoch: 19 August)

Date Brightness Start Highest point End Pass type
(mag) Time Alt. Az. Time Alt. Az. Time Alt. Az.
19 Aug 8.4 23:59:57 14° NE 23:59:57 14° NE 00:01:07 10° NE visible
20 Aug 8.0 01:40:25 24° NNW 01:40:25 24° NNW 01:42:40 10° N visible
21 Aug 7.9 01:07:03 27° N 01:07:03 27° N 01:09:20 10° N visible
22 Aug 8.0 00:33:41 23° NNE 00:33:41 23° NNE 00:35:42 10° NNE visible
22 Aug 8.5 02:14:09 13° NW 02:14:09 13° NW 02:15:03 10° NW visible
23 Aug 8.3 00:00:18 17° NE 00:00:18 17° NE 00:01:44 10° NNE visible
23 Aug 8.3 01:40:46 19° NNW 01:40:46 19° NNW 01:42:29 10° NNW visible
23 Aug 8.6 23:26:55 11° NE 23:26:55 11° NE 23:27:10 10° NE visible
24 Aug 8.1 01:07:23 23° NNW 01:07:23 23° NNW 01:09:21 10° N visible
25 Aug 8.1 00:34:00 23° N 00:34:00 23° N 00:35:54 10° N visible
26 Aug 8.2 00:00:36 19° NNE 00:00:36 19° NNE 00:02:08 10° NNE visible
26 Aug 8.6 01:41:04 14° NW 01:41:04 14° NW 01:42:06 10° NNW visible
26 Aug 8.5 23:27:12 13° NE 23:27:12 13° NE 23:27:59 10° NNE visible
27 Aug 8.4 01:07:40 19° NNW 01:07:40 19° NNW 01:09:15 10° NNW visible
28 Aug 8.3 00:34:16 21° N 00:34:16 21° N 00:35:59 10° N visible
29 Aug 8.3 00:00:51 20° NNE 00:00:51 20° NNE 00:02:24 10° N visible
29 Aug 8.8 01:41:19 10° NW 01:41:19 10° NW 01:41:22 10° NW visible
29 Aug 8.4 23:27:26 16° NNE 23:27:26 16° NNE 23:28:30 10° NNE visible
